Location: Kitt Peak
(31.9639°N, 111.5992°W)
Time: 18:20:21
(UTC-07:00)

Tiangong 2 - Visible Passes

Search period start: 17 February 2018 00:00
Search period end: 27 February 2018 00:00
Orbit: 385 x 388 km, 42.8° (Epoch: 17 February)

Date Brightness Start Highest point End Pass type
(mag) Time Alt. Az. Time Alt. Az. Time Alt. Az.
17 Feb 3.5 19:15:06 10° NNW 19:16:31 12° N 19:17:29 11° NNE visible
18 Feb 3.5 19:52:31 10° NNW 19:53:41 16° NNW 19:53:41 16° NNW visible
19 Feb 3.3 18:53:50 10° NNW 18:55:43 15° NNE 18:57:36 10° NE visible
19 Feb 4.5 20:29:54 10° NW 20:29:56 10° NW 20:29:56 10° NW visible
20 Feb 2.2 19:31:08 10° NW 19:33:57 28° NNE 19:33:58 28° NNE visible
21 Feb 3.1 20:08:42 10° WNW 20:10:23 28° WNW 20:10:23 28° WNW visible
22 Feb 1.3 19:09:48 10° NW 19:12:54 51° NNE 19:14:38 22° E visible
23 Feb 2.5 19:47:44 10° WNW 19:50:38 33° SW 19:51:19 29° S visible
24 Feb 1.3 18:48:34 10° WNW 18:51:44 74° SSW 18:54:53 10° SE visible
25 Feb 3.9 19:27:16 10° W 19:29:17 16° SW 19:31:17 10° S visible
